[[{"header":{"parameterUnit":"m.s-1","parameterCategory":1,"la1":30.2991,"la2":30.254,"lo1":-89.0895,"lo2":-89.0444,"dy":0.0017,"dx":0.0017,"nx":28,"ny":28,"refTime":"2025-04-30T21:00:00:Z","depth":0,"parameterNumber":2,"parameterNumberName":"U-component_of_WINDS"},"data":[0,0,0,0,0,0,0,0,0,0,0,0,0,0,0,0,0,0,0,0,0,0,0,0,0,0,0,0,0,0,0,0,0,0,0,0,0,0,0,0,0,0,0,0,0,0,0,0,0,0,0,0,0,0,0,0,0,0,-2.0881,-2.0881,0,-2.0885,-2.0885,-2.0885,-2.0864,-2.0864,-2.0863,-2.0862,-2.0868,-2.0868,-2.0869,0,0,0,0,0,0,0,0,0,0,0,0,0,-2.0856,-2.0856,-2.0881,-2.0881,-2.0881,-2.0885,-2.0885,-2.0885,-2.0864,-2.0864,-2.0863,-2.0862,-2.0867,-2.0868,-2.0869,0,0,0,0,0,0,0,0,0,0,0,0,0,-2.0864,-2.0857,-2.0881,-2.0871,-2.087,-2.0885,-2.0885,-2.0885,-2.0865,-2.0864,-2.0863,-2.0862,-2.0867,-2.0868,-2.0869,-2.0894,0,0,-2.0872,-2.0873,0,0,0,0,0,0,0,0,-2.0864,-2.0865,-2.0873,-2.0872,-2.0871,-2.0873,-2.0878,-2.0888,-2.0865,-2.0867,-2.0862,-2.0861,-2.087,-2.0871,-2.0874,-2.0894,-2.0894,-2.0873,-2.0873,-2.0874,-2.0874,0,0,0,0,0,0,0,-2.0863,-2.0865,-2.0883,-2.0873,-2.0872,-2.0867,-2.0867,-2.088,-2.0874,-2.0867,-2.0865,-2.0866,-2.087,-2.0873,-2.0874,-2.0895,-2.0873,-2.0873,-2.0874,-2.0875,-2.0934,-2.0935,0,0,0,0,0,0,-2.0864,-2.0864,-2.0883,-2.0883,-2.0865,-2.0868,-2.0868,-2.0873,-2.0873,-2.0873,-2.0866,-2.0865,-2.0872,-2.0873,-2.0874,-2.0901,-2.0874,-2.0875,-2.0875,-2.0933,-2.0934,-2.0935,0,0,0,0,0,0,-2.0863,-2.0865,-2.0882,-2.0873,-2.0875,-2.0869,-2.0876,-2.0874,-2.0877,-2.0873,-2.0872,-2.0871,-2.0871,-2.0872,-2.0889,-2.0901,-2.0875,-2.0876,-2.0932,-2.0933,-2.0935,-2.0957,0,0,0,0,0,0,-2.0863,-2.0865,-2.0875,-2.0874,-2.0875,-2.0897,-2.0876,-2.0875,-2.0879,-2.0877,-2.0877,-2.0876,-2.087,-2.0887,-2.089,-2.0902,-2.0877,-2.0931,-2.0932,-2.0934,-2.0956,-2.0959,-2.0963,0,0,0,0,0,-2.0862,-2.0882,-2.0875,-2.0878,-2.0887,-2.0898,-2.0899,-2.0891,-2.088,-2.0889,-2.0887,-2.0876,-2.09,-2.0889,-2.0892,-2.0905,-2.093,-2.0932,-2.0934,-2.0954,-2.0959,-2.0963,0,0,0,0,0,0,-2.0885,-2.0881,-2.0874,-2.0894,-2.0896,-2.0894,-2.0905,-2.0897,-2.0903,-2.09,-2.0891,-2.0891,-2.0909,-2.0909,-2.0897,-2.0928,-2.0913,-2.0916,-2.0927,-2.0932,-2.0935,-2.0934,-2.0878,0,0,0,0,0,-2.0892,-2.0901,-2.0898,-2.0916,-2.0917,-2.0911,-2.0916,-2.0909,-2.0912,-2.0912,-2.0911,-2.0914,-2.0922,-2.0927,-2.0934,-2.0956,-2.0955,-2.0966,-2.097,-2.0973,-2.0975,-2.0985,-2.099,-2.0942,-2.0942,-2.0942,0,0,-2.0908,-2.0907,-2.0913,-2.092,-2.0921,-2.093,-2.0912,-2.0923,-2.093,-2.0914,-2.0929,-2.0928,-2.093,-2.0949,-2.0957,-2.095,-2.0988,-2.0976,-2.0978,-2.0978,-2.0988,-2.0992,-2.0996,-2.0944,-2.0943,-2.0943,0,0,-2.094,-2.0941,-2.0955,-2.0956,-2.0957,-2.0953,-2.0957,-2.0956,-2.0955,-2.0969,-2.0957,-2.0966,-2.098,-2.0981,-2.0984,-2.1016,-2.1007,-2.1019,-2.1038,-2.1048,-2.1051,-2.1055,-2.1065,-2.1068,-2.1022,-2.1022,-2.1022,0,-2.0959,-2.0972,-2.0964,-2.0975,-2.0978,-2.0964,-2.0978,-2.098,-2.0984,-2.0986,-2.0978,-2.0994,-2.0995,-2.1013,-2.1021,-2.1024,-2.1027,-2.1018,-2.1052,-2.1055,-2.1058,-2.1067,-2.1071,-2.1023,-2.1023,-2.1023,-2.1023,0,-2.0994,-2.1004,-2.1015,-2.1018,-2.1023,-2.1035,-2.1029,-2.1035,-2.1028,-2.1025,-2.1039,-2.104,-2.1046,-2.105,-2.1045,-2.1068,-2.1062,-2.1053,-2.1037,-2.1063,-2.1072,-2.1076,-2.1025,-2.1024,-2.1024,-2.1024,0,0,-2.104,-2.1038,-2.1042,-2.1043,-2.1044,-2.1051,-2.1063,-2.1068,-2.1073,-2.1076,-2.1085,-2.1097,-2.1088,-2.1091,-2.1086,-2.1095,-2.1118,-2.1084,-2.1084,-2.1089,-2.1142,-2.1147,-2.1152,-2.1113,-2.1113,-2.1114,-2.1141,0,-2.1071,-2.109,-2.1082,-2.1102,-2.111,-2.1097,-2.1107,-2.1109,-2.1106,-2.1113,-2.111,-2.1118,-2.1106,-2.1108,-2.1116,-2.1114,-2.1128,-2.1112,-2.112,-2.112,-2.1118,-2.1157,-2.1163,-2.1189,-2.1144,-2.1145,-2.1145,0,-2.1108,-2.1112,-2.1132,-2.113,-2.1133,-2.1142,-2.1146,-2.1153,-2.1154,-2.1151,-2.1155,-2.1147,-2.1158,-2.1144,-2.1159,-2.1147,-2.1151,-2.115,-2.1151,-2.115,-2.1133,-2.1155,-2.1197,-2.12,-2.1151,-2.1151,-2.115,0,-2.1137,-2.1148,-2.1161,-2.1162,-2.116,-2.1167,-2.1167,-2.1167,-2.1171,-2.1174,-2.1176,-2.1182,-2.1185,-2.1189,-2.1183,-2.1173,-2.1198,-2.1183,-2.1195,-2.1196,-2.12,-2.1199,-2.1241,-2.1205,-2.1205,-2.1205,-2.1205,0,-2.1171,-2.1183,-2.1174,-2.1182,-2.1195,-2.1187,-2.1201,-2.1199,-2.1199,-2.1206,-2.1197,-2.1204,-2.1196,-2.1202,-2.1198,-2.121,-2.1212,-2.121,-2.1208,-2.1209,-2.1209,-2.121,-2.1207,-2.1206,-2.1206,-2.1206,-2.1205,0,-2.1205,-2.1199,-2.1212,-2.121,-2.1209,-2.1219,-2.1217,-2.1224,-2.1221,-2.123,-2.1232,-2.1227,-2.1233,-2.1228,-2.1235,-2.1232,-2.1248,-2.1245,-2.1247,-2.1245,-2.1257,-2.1255,-2.1299,-2.1304,-2.1266,-2.1267,-2.1267,0,-2.1226,-2.1235,-2.1233,-2.1236,-2.1236,-2.1243,-2.1246,-2.1239,-2.1242,-2.1244,-2.1251,-2.1257,-2.1261,-2.1272,-2.1269,-2.1275,-2.127,-2.1285,-2.1271,-2.1272,-2.1268,-2.1267,-2.1267,-2.1288,-2.1288,-2.1288,-2.1289,0,-2.1263,-2.1259,-2.1264,-2.1267,-2.1271,-2.1274,-2.1276,-2.1279,-2.1272,-2.1276,-2.1283,-2.1286,-2.1293,-2.1298,-2.1302,-2.1302,-2.1294,-2.1293,-2.1296,-2.1297,-2.1297,-2.1295,-2.1253,-2.1292,-2.1292,-2.1292,-2.1291,-2.1291,-2.129,-2.1296,-2.1296,-2.1301,-2.1301,-2.1303,-2.1309,-2.1306,-2.1311,-2.1315,-2.1311,-2.1319,-2.1319,-2.1323,-2.1324,-2.133,-2.1324,-2.1328,-2.1329,-2.133,-2.1331,-2.1298,-2.1331,-2.1331,-2.1331,-2.1331,-2.1331,0,-2.1324,-2.1323,-2.1328,-2.133,-2.1334,-2.1326,-2.1328,-2.1331,-2.1338,-2.1339,-2.1343,-2.135,-2.1355,-2.1353,-2.1357,-2.1362,-2.1358,-2.1364,-2.1362,-2.1362,-2.1337,-2.1333,-2.1366,-2.1366,-2.1366,-2.1366,-2.1366,-2.1366,-2.1343,-2.1353,-2.135,-2.1361,-2.1359,-2.1366,-2.1367,-2.1369,-2.1369,-2.1377,-2.1381,-2.1379,-2.1379,-2.1383,-2.1387,-2.1386,-2.1388,-2.1394,-2.1391,-2.1368,-2.1364,-2.1361,-2.1357,-2.1395,-2.1395,-2.1416,-2.1416,-2.1416]},{"header":{"parameterUnit":"m.s-1","parameterCategory":1,"la1":30.2991,"la2":30.254,"lo1":-89.0895,"lo2":-89.0444,"dy":0.0017,"dx":0.0017,"nx":28,"ny":28,"refTime":"2025-04-30T21:00:00:Z","depth":0,"parameterNumber":3,"parameterNumberName":"V-component_of_WINDS"},"data":[0,0,0,0,0,0,0,0,0,0,0,0,0,0,0,0,0,0,0,0,0,0,0,0,0,0,0,0,0,0,0,0,0,0,0,0,0,0,0,0,0,0,0,0,0,0,0,0,0,0,0,0,0,0,0,0,0,0,5.8344,5.8345,0,5.842,5.8421,5.8422,5.8418,5.8417,5.8416,5.8415,5.8487,5.849,5.8493,0,0,0,0,0,0,0,0,0,0,0,0,0,5.8191,5.8194,5.8344,5.8345,5.8346,5.842,5.8421,5.8422,5.8418,5.8417,5.8416,5.8415,5.8486,5.8489,5.8493,0,0,0,0,0,0,0,0,0,0,0,0,0,5.8261,5.8194,5.8344,5.8353,5.8355,5.842,5.8421,5.8422,5.8419,5.8417,5.8415,5.8414,5.8485,5.8489,5.8493,5.8552,0,0,5.8507,5.8509,0,0,0,0,0,0,0,0,5.8257,5.8266,5.8351,5.8352,5.8354,5.8408,5.8393,5.8465,5.8419,5.8394,5.8415,5.8413,5.8462,5.8468,5.8485,5.8555,5.8559,5.8507,5.851,5.8512,5.8513,0,0,0,0,0,0,0,5.8252,5.8263,5.8374,5.8352,5.8354,5.8352,5.836,5.8407,5.8436,5.8396,5.8396,5.8406,5.8462,5.8481,5.8487,5.856,5.8507,5.8511,5.8514,5.8515,5.8683,5.8685,0,0,0,0,0,0,5.8246,5.8259,5.8371,5.8376,5.8301,5.8356,5.8365,5.8392,5.8435,5.844,5.8407,5.8405,5.8475,5.8482,5.849,5.8562,5.8512,5.8516,5.8518,5.8681,5.8684,5.8686,0,0,0,0,0,0,5.8243,5.8256,5.8368,5.8318,5.8332,5.836,5.8391,5.8395,5.8414,5.8443,5.8448,5.8421,5.8474,5.8483,5.8537,5.8565,5.8518,5.8522,5.8679,5.8682,5.8685,5.8707,0,0,0,0,0,0,5.8238,5.8255,5.8278,5.8318,5.8335,5.8416,5.8393,5.8397,5.8422,5.842,5.8458,5.8463,5.8473,5.8531,5.8542,5.857,5.8525,5.8677,5.868,5.8684,5.8704,5.871,5.8716,0,0,0,0,0,5.8233,5.828,5.8279,5.8293,5.8365,5.8418,5.8427,5.844,5.8424,5.8447,5.8467,5.8461,5.856,5.8536,5.8549,5.8578,5.8675,5.8679,5.8683,5.8702,5.8709,5.8716,0,0,0,0,0,0,5.8239,5.8285,5.8285,5.8347,5.8379,5.8417,5.8447,5.8447,5.8482,5.8479,5.8492,5.85,5.8555,5.8572,5.8545,5.8638,5.8615,5.8622,5.8625,5.8633,5.8638,5.8633,5.8529,0,0,0,0,0,5.8249,5.829,5.8327,5.8377,5.8394,5.8418,5.8441,5.8449,5.8481,5.8494,5.8517,5.8547,5.8585,5.861,5.8646,5.8707,5.8715,5.8733,5.8739,5.8744,5.8749,5.8784,5.8792,5.8699,5.8699,5.8699,0,0,5.8267,5.8297,5.8322,5.838,5.8405,5.8446,5.8429,5.8472,5.8503,5.85,5.8553,5.8571,5.8606,5.8664,5.8691,5.868,5.8777,5.8749,5.8753,5.8756,5.8789,5.8798,5.8806,5.8702,5.8702,5.8701,0,0,5.8322,5.8349,5.8395,5.8422,5.8462,5.8478,5.8489,5.8528,5.8541,5.8595,5.8594,5.8629,5.8694,5.872,5.8741,5.8808,5.8804,5.8819,5.8849,5.8882,5.889,5.8896,5.8921,5.8929,5.8824,5.8824,5.8824,0,5.8339,5.8402,5.8418,5.8463,5.8489,5.8491,5.8538,5.8562,5.8611,5.8628,5.8616,5.8699,5.8722,5.8786,5.8803,5.882,5.8833,5.8814,5.8888,5.8895,5.8901,5.8924,5.8933,5.8826,5.8826,5.8826,5.8826,0,5.8422,5.8466,5.8498,5.8549,5.8578,5.8623,5.8645,5.8672,5.8677,5.8694,5.875,5.8778,5.8821,5.8837,5.8841,5.8903,5.8895,5.8885,5.8863,5.8911,5.8933,5.8942,5.8828,5.8828,5.8827,5.8827,0,0,5.8482,5.8542,5.8554,5.8578,5.8623,5.8656,5.8702,5.8746,5.877,5.8804,5.8842,5.8898,5.889,5.8914,5.8921,5.8951,5.9003,5.8938,5.8939,5.8949,5.9073,5.908,5.909,5.9001,5.9003,5.9004,5.907,0,5.8542,5.8625,5.8641,5.8713,5.8754,5.8758,5.8797,5.8829,5.8846,5.8882,5.89,5.8941,5.8927,5.8941,5.8971,5.8991,5.9028,5.8986,5.9036,5.9038,5.9028,5.9102,5.9109,5.917,5.9079,5.908,5.9081,0,5.8622,5.8662,5.8738,5.878,5.8798,5.8833,5.8876,5.8911,5.8947,5.8958,5.8986,5.8991,5.9037,5.9013,5.9077,5.9048,5.9069,5.9082,5.9085,5.909,5.9062,5.9109,5.919,5.9199,5.9095,5.9094,5.9093,0,5.8659,5.8731,5.8787,5.8806,5.8856,5.8881,5.8903,5.8937,5.8964,5.9,5.9018,5.9058,5.9081,5.9112,5.9127,5.9108,5.919,5.9167,5.92,5.9199,5.9216,5.9215,5.9302,5.923,5.923,5.923,5.9229,0,5.8725,5.8771,5.8804,5.8838,5.8891,5.8909,5.896,5.8981,5.9012,5.9049,5.9053,5.9088,5.9106,5.9143,5.9155,5.9207,5.9216,5.9226,5.9228,5.9226,5.9224,5.924,5.9236,5.9232,5.9232,5.9231,5.9231,0,5.8774,5.8798,5.886,5.8903,5.8915,5.8952,5.8988,5.9021,5.9039,5.9086,5.9098,5.9126,5.917,5.9189,5.9242,5.925,5.9309,5.9308,5.9298,5.9299,5.9331,5.9328,5.943,5.9445,5.9363,5.9364,5.9364,0,5.8815,5.8851,5.89,5.8927,5.895,5.8992,5.902,5.9039,5.9067,5.9112,5.9139,5.9184,5.9221,5.9291,5.9315,5.9356,5.9356,5.9389,5.9362,5.9358,5.9357,5.9355,5.9359,5.9394,5.9395,5.9395,5.9396,0,5.8884,5.8895,5.8936,5.8982,5.9016,5.9052,5.9087,5.9108,5.9133,5.9164,5.9211,5.924,5.9296,5.934,5.9383,5.9403,5.9404,5.9405,5.9414,5.9412,5.9405,5.941,5.9312,5.9402,5.9401,5.9401,5.9401,5.94,5.8931,5.8964,5.9004,5.905,5.908,5.9113,5.9147,5.917,5.921,5.9259,5.9267,5.9317,5.9352,5.9411,5.9433,5.9471,5.9462,5.9476,5.948,5.9483,5.9486,5.9399,5.9479,5.9478,5.9478,5.9478,5.9478,0,5.9001,5.9028,5.907,5.9121,5.9157,5.9157,5.9197,5.9226,5.9271,5.9305,5.9342,5.9396,5.9439,5.9468,5.9511,5.9536,5.9538,5.9547,5.9545,5.955,5.949,5.9478,5.9546,5.9546,5.9546,5.9546,5.9546,5.9546,5.9042,5.9099,5.9115,5.9186,5.9212,5.9263,5.9285,5.9316,5.9344,5.9405,5.9442,5.9461,5.9493,5.9539,5.9578,5.9585,5.9601,5.9611,5.9618,5.9561,5.9554,5.9548,5.9536,5.9615,5.9615,5.9675,5.9675,5.9676]}]]